Powrót do katalogu

STARLINK-2574

AktywnyŁącznośćVLEO
NORAD 48395·PAYLOAD·🇺🇸 United States

Wystrzelony May 4, 2021 z Cape Canaveral Space Force Station

Loading…

Następne Przeloty (najbliższe 24 godziny)

TLE

ŚwieżeSource: CelesTrak SupGP

Epoka: Sep 14, 2026, 20:29 UTC

1 48395C 21038AU  26257.85395833 -.00011386  00000+0 -36615-3 0  2570
2 48395  53.1580 174.5805 0001314  93.4203 272.6400 15.31708217    10

Śledź STARLINK-2574 w czasie rzeczywistym z AllMySat

Download on the App Store